OPS 4682 DEB, 18533

Orbit data source: Space-Track

OPS 4682 DEB, 18533 is space debris in LEO originally from a launch on Sat, 03 Apr 1965 UTC launched from the Air Force Western Test Range (AFWTR). Debris objects in space refer to the collection of defunct objects orbiting the Earth. Examples of debris include non-operational satellites, rocket bodies, and fragments generated from explosions, collisions, or faulty payload assembly.

Loading next visibility...
Identifier
18533, 1965-027AD
Orbit
LEO
Country
Flag of USUS
Related business
Manufacturer
Unknown
Mission
Spacecraft
Bus & Motor
Unknown
Mass
Unknown
Launch date (UTC)
1965-04-03 (61 years ago)
Launch vehicle
Unknown
Launch site
Air Force Western Test Range (AFWTR)
Object type
Payload
Rocket body
Debris
Shape & HBR
Unknown shape, 0.1 m
Radar Cross Section
Small (<0.1 m²)

Expand to show TLE details & history
Last TLE update: 16 hours ago

TLE from 16 hours ago
0 OPS 4682 DEB
1 18533U 65027AD  25349.52646350  .00000672  00000-0  23337-2 0  9999
2 18533  90.2358   2.3461 0025059 246.1489 267.5216 12.96048623870319
Epoch: 2025-12-15T12:38Z
TLE epoch observation values (Epoch: 2025-12-15T12:38:06.446Z)
Latitude
26.64845°
Longitude
-91.48678°
Altitude
1,281.727 km
Speed
7.217 km/s
True Right ascension
12h 09m 51s
True Declination
26° 31' 13"
Sunlit
Object was in daylight at epoch
Visualization orbit readout
Latitude
Unknown
Longitude
Unknown
Altitude
Unknown
Speed
Unknown
Apparent Right ascension
Unknown
Apparent Declination
Unknown
Sunlit
N/A
Visualization observer readout
Local Sidereal Time
03:26:39
Azimuth
Unknown
Elevation
Unknown
Doppler factor
Unknown
Orbital elements
Apogee altitude
1,293.918 km
Perigee altitude
1,255.563 km
Semi-major axis
7,652.878 km
Eccentricity
0.00251
Inclination
90.2358°
RAAN
2.3461°
Arg. of periapsis
246.1489°
True anomaly
267.23475°
Mean anomaly
267.5216°
Eccentric anomaly
267.37817°
Mean motion
3.24195 °/min
Orbital period
111.04 mins
BSTAR
0.0023337
Loading maneuver chart data...
Computing Atmospheric mass density...
Loading historical data...
Loading historical data...
Loading historical data...
Loading historical data...
Loading historical data...
Loading historical data...
Loading historical data...

Documentation

Showing up to 5 results
|